Live-Position
3D-Globus wird geladen...
Über Starlink 3746
Group: 3 satellites
Beschreibung wird geladen...
Nächste Überflüge
Passes for default location (London). Set your location on the main map for personalized predictions.
Höhenverlauf
Loading altitude history...
No altitude history available
Zweizeiliger Elementsatz
1 52268U 22041H 26127.23503509 .00001841 00000-0 13376-3 0 9994
2 52268 53.2170 206.2228 0001285 84.9221 275.1918 15.08836668223200
Epoch: 7. Mai 2026 •
Age: 9 hours
Aktueller Status
Höhe 543.6 km
Geschwindigkeit 7.59 km/s
Subsatellitenpunkt -13.63°S,
102.03°E
Startdatum 21. Apr. 2022
Alter 4 years
Typ internet
Startgruppe
Falcon 9 •
Group 4-14 •
46 satellites
Starlink 3761
52262
Starlink 3786 52263
Starlink 3795 52264
Starlink 3740 52265
Starlink 3739 52266
Starlink 3748 52267
Starlink 3791 52269
Starlink 3804 52270
Starlink 3788 52271
Starlink 3781 52272
Starlink 3782 52273
Starlink 3790 52274
Starlink 3784 52275
Starlink 3778 52276
Starlink 3780 52278
Starlink 3764 52280
Starlink 3779 52281
Starlink 3783 52282
Starlink 3789 52283
Starlink 3561 52284
...and 25 more
Technische Details
Klassifizierung Payload
Masse 297.00 kg
Trockenmasse 275.00 kg
Gesamtmasse 297.00 kg
Länge 0.20 m
Durchmesser 2.80 m
Spannweite 9.00 m
Form Box + pan
Hersteller SPXS
Bus-Typ Starlink
Phasenstatus In Orbit
Besitzer/Staat SPXS/US
Most Searched
Loading...